Zurück zum Katalog

ORCA-2B

AktivWissenschaftSSO
NORAD 63221·PAYLOAD·🇺🇸 United States
Dieser Satellitenname wurde noch nicht durch offizielle Quellen bestätigt.

Gestartet Mar 15, 2025 von Vandenberg Space Force Base

Loading…

Nächste Überflüge (nächste 24 Stunden)

TLE

AktuellSource: Space-Track

Epoche: Sep 13, 2026, 16:28 UTC

1 63221U 25052M   26256.68668352  .00002646  00000-0  11733-3 0  9999
2 63221  97.3742 147.2313 0003494 161.5312 198.6052 15.22458650 83301

Verfolge ORCA-2B in Echtzeit mit AllMySat

Download on the App Store